Weather in Novaya Moskva

Russia / Bryansk Oblast     53°00′57″N   31°33′07″E
temp.,
°C
wind,
m/s
gust,
m/s
humid.,
%
clouds,
%
prec.,
mm/h
press.,
hPa
HPBL,
m
5 march, fri
fri500:00−1wnw4993100 0.0 1008313
03:00−3nw359391 0.0 1009129
06:00−6nw349368 0.0 101177
09:00−6nw369334 0.0 1012179
12:00−2nnw35831 0.0 1014546
15:00−1nw357638 0.0 1014818
18:00−2wsw3485100 0.1 101580
21:00−4wnw3483100 0.1 101778
6 march, sat
sat600:00−7nw368574 0.0 1019113
03:00−8nw348237 0.0 102087
06:00−9nw36850 0.0 102098
09:00−7nw358314 0.0 1022149
12:00−3nw356832 0.0 1022945
15:00−2nw466427 0.1 10221570
18:00−4w347791 0.1 102169
21:00−6wsw478545 0.1 1021109
7 march, sun
sun700:00−7wsw478430 0.0 1020138
03:00−6sw6128445 0.0 1017355
06:00−4sw81680100 0.0 1013659
09:00−2wsw101785100 0.0 10081021
12:000w111994100 0.4 10061347
15:00−2nw6984100 2.4 1007845
18:00−3w357373 0.1 1007106
21:00−4wsw478053 0.1 1007148
8 march, mon
mon800:00−2wsw51294100 0.1 1005535
03:00−3wnw51280100 0.2 1005686
06:00−6nw5128454 0.0 1006433
09:00−6nw5108138 0.0 1009695
12:00−5nw46710 0.0 1010903
15:00−3wnw46680 0.0 10111053
18:00−4wnw22760 0.0 101125
21:00−7n127925 0.0 101321
9 march, tue
tue900:00−7nnw238796 0.0 101452
03:00−8nnw489394 0.0 1015321
06:00−10n5988100 0.1 1017450
09:00−11n5108750 0.1 1020576
12:00−8nnw478175 0.0 1021686
15:00−5nw467159 0.0 1022886
18:00−6w35770 0.0 1021112
21:00−7w4107520 0.0 1022208